Regional Weather Roundup
Issued by NWS

Home | Current Version | Previous Version | Text Only | Print | Product List | Glossary On
Versions: 1 2 3 4 5 6 7 8 9 10 11 12 13 14 15 16 17 18 19 20 21 22 23 24 25 26 27 28 29 30 31 32 33 34 35 36 37 38 39 40 41 42 43 44 45 46 47 48 49 50
000
ASUS44 KOUN 161700
RWROK

WEATHER ROUNDUP FOR OKLAHOMA
NATIONAL WEATHER SERVICE NORMAN OK
1100 AM CST SAT DEC 16 2017

NOTE: "FAIR" INDICATES FEW OR NO CLOUDS BELOW 12,000 FEET WITH NO
      SIGNIFICANT WEATHER AND/OR OBSTRUCTIONS TO VISIBILITY.

OKZ001>007-009>012-014-015-017-161800-
NORTHWEST OKLAHOMA AND THE PANHANDLE

CITY           SKY/WX    TMP DP  RH WIND       PRES   REMARKS
GAGE           SUNNY     50  25  37 S21G31    29.86S
GUYMON         SUNNY     47  23  38 S12       29.76R
$$

OKZ016-021>023-033>039-044-045-161800-
SOUTHWEST OKLAHOMA

CITY           SKY/WX    TMP DP  RH WIND       PRES   REMARKS
LAWTON/REGL    CLOUDY    52  29  41 S13       30.02F
LAWTON/FT SILL CLOUDY    52  31  46 S12       30.00F
FREDERICK      SUNNY     53  28  38 SW16      29.98F
CLINTON        SUNNY     49  27  42 S22G31    29.94F
HOBART         SUNNY     49  27  42 SW20      29.98F
ALTUS AFB      SUNNY     51  24  34 S17       29.98F
$$

OKZ018>020-024>031-161800-
CENTRAL OKLAHOMA

CITY           SKY/WX    TMP DP  RH WIND       PRES   REMARKS
OKLAHOMA CITY  CLOUDY    50  26  39 S16       30.00F
OKC/WILEY POST SUNNY     50  27  40 SW20G26   29.99F
OKC/TINKER AFB CLOUDY    50  26  39 S20       30.00F
STILLWATER     SUNNY     55  25  31 S16G23    29.99S
GUTHRIE        SUNNY     54  26  34 SW21G31   29.98F
$$

OKZ008-013-054>072-161800-
NORTHEAST OKLAHOMA

CITY           SKY/WX    TMP DP  RH WIND       PRES   REMARKS
TULSA          MOSUNNY   52  26  36 S16       30.05F
TULSA/JONES    SUNNY     52  25  35 S13       30.05F
PONCA CITY     SUNNY     54  28  36 SW18G25   29.96F
BARTLESVILLE   SUNNY     54  26  34 S15G21    30.02F
MUSKOGEE       CLOUDY    54  27  35 SW18G25   30.11F
$$

OKZ032-040>043-046>053-073>077-161800-
SOUTH CENTRAL/SOUTHEAST OKLAHOMA

CITY           SKY/WX    TMP DP  RH WIND       PRES   REMARKS
MCALESTER      MOSUNNY   54  28  36 S13G22    30.11F
$$





USA.gov is the U.S. government's official web portal to all federal, state and local government web resources and services.